Time,TemperatureF,DewpointF,PressureIn,WindDirection,WindDirectionDegrees,WindSpeedMPH,WindSpeedGustMPH,Humidity,HourlyPrecipIn,Conditions,Clouds,dailyrainin,SolarRadiationWatts/m^2,SoftwareType,DateUTC
2013-02-19 00:01:00,23.0,5.7,30.08,West,270,5.0,5.0,47,0.00,CLR,SKC,0.00,0.0,WeatherDisplay:10.37,2013-02-19 05:01:00,
2013-02-19 00:16:00,23.0,5.7,30.07,NW,310,5.0,5.0,47,0.00,CLR,SKC,0.00,0.0,WeatherDisplay:10.37,2013-02-19 05:16:00,
2013-02-19 00:31:00,23.0,5.7,30.11,NW,310,5.0,5.0,47,0.00,CLR,SKC,0.00,0.0,WeatherDisplay:10.37,2013-02-19 05:31:00,
2013-02-19 00:46:00,23.0,5.7,30.09,NW,310,5.0,5.0,47,0.00,CLR,SKC,0.00,0.0,WeatherDisplay:10.37,2013-02-19 05:46:00,
2013-02-19 01:01:00,23.0,5.7,30.09,NW,310,5.0,5.0,47,0.00,CLR,SKC,0.00,0.0,WeatherDisplay:10.37,2013-02-19 06:01:00,
2013-02-19 01:16:00,23.0,6.7,30.10,WNW,300,5.0,5.0,49,0.00,CLR,SKC,0.00,0.0,WeatherDisplay:10.37,2013-02-19 06:16:00,
2013-02-19 01:31:00,23.0,6.7,30.12,WNW,300,5.0,5.0,49,0.00,CLR,SKC,0.00,0.0,WeatherDisplay:10.37,2013-02-19 06:31:00,
2013-02-19 01:46:00,23.0,6.7,30.10,WNW,300,5.0,5.0,49,0.00,CLR,SKC,0.00,0.0,WeatherDisplay:10.37,2013-02-19 06:46:00,
2013-02-19 02:01:00,23.0,6.7,30.10,WNW,300,5.0,5.0,49,0.00,CLR,SKC,0.00,0.0,WeatherDisplay:10.37,2013-02-19 07:01:00,
2013-02-19 02:16:00,25.0,8.0,30.08,NW,310,3.0,5.0,48,0.00,FEW,SKC,0.00,0.0,WeatherDisplay:10.37,2013-02-19 07:16:00,
2013-02-19 02:31:00,25.0,8.0,30.08,NW,310,3.0,3.0,48,0.00,FEW,SKC,0.00,0.0,WeatherDisplay:10.37,2013-02-19 07:31:00,
2013-02-19 02:46:00,25.0,8.0,30.09,NW,310,3.0,3.0,48,0.00,FEW,SKC,0.00,0.0,WeatherDisplay:10.37,2013-02-19 07:46:00,
2013-02-19 03:01:00,25.0,8.0,30.09,NW,310,3.0,3.0,48,0.00,FEW,SKC,0.00,0.0,WeatherDisplay:10.37,2013-02-19 08:01:00,
2013-02-19 03:16:00,25.0,8.0,30.09,NW,310,5.0,5.0,48,0.00,SCT,SKC,0.00,0.0,WeatherDisplay:10.37,2013-02-19 08:16:00,
2013-02-19 03:31:00,25.0,8.0,30.11,NW,310,5.0,5.0,48,0.00,SCT,SKC,0.00,0.0,WeatherDisplay:10.37,2013-02-19 08:31:00,
2013-02-19 03:46:00,25.0,8.0,30.05,NW,310,5.0,5.0,48,0.00,SCT,SKC,0.00,0.0,WeatherDisplay:10.37,2013-02-19 08:46:00,
2013-02-19 04:01:00,25.0,8.0,30.05,NW,310,5.0,5.0,48,0.00,SCT,SKC,0.00,0.0,WeatherDisplay:10.37,2013-02-19 09:01:00,
2013-02-19 04:16:00,24.1,13.7,30.04,NNW,330,3.0,5.0,64,0.00,OVC,SKC,0.00,0.0,WeatherDisplay:10.37,2013-02-19 09:16:00,
2013-02-19 04:31:00,24.1,13.7,30.04,NNW,330,3.0,3.0,64,0.00,OVC,SKC,0.00,0.0,WeatherDisplay:10.37,2013-02-19 09:31:00,
2013-02-19 04:46:00,24.1,13.7,30.10,NNW,330,3.0,3.0,64,0.00,OVC,SKC,0.00,0.0,WeatherDisplay:10.37,2013-02-19 09:46:00,
2013-02-19 05:01:00,24.1,13.7,30.04,NNW,330,3.0,3.0,64,0.00,OVC,SKC,0.00,0.0,WeatherDisplay:10.37,2013-02-19 10:01:00,
2013-02-19 05:16:00,24.1,12.6,30.07,NNW,330,0.0,3.0,61,0.00,OVC,SKC,0.00,0.0,WeatherDisplay:10.37,2013-02-19 10:16:00,
2013-02-19 05:31:00,24.1,12.6,30.04,NNW,330,0.0,0.0,61,0.00,OVC,SKC,0.00,0.0,WeatherDisplay:10.37,2013-02-19 10:31:00,
2013-02-19 05:46:00,24.1,12.6,30.03,NNW,330,0.0,0.0,61,0.00,OVC,SKC,0.00,0.0,WeatherDisplay:10.37,2013-02-19 10:46:00,
2013-02-19 06:01:00,24.1,12.6,30.03,NNW,330,0.0,0.0,61,0.00,OVC,SKC,0.00,0.0,WeatherDisplay:10.37,2013-02-19 11:01:00,
2013-02-19 06:16:00,24.1,11.8,30.03,NNW,330,0.0,0.0,59,0.00,BKN,SKC,0.00,0.0,WeatherDisplay:10.37,2013-02-19 11:16:00,
2013-02-19 06:31:00,24.1,11.8,30.07,NNW,330,0.0,0.0,59,0.00,BKN,SKC,0.00,0.0,WeatherDisplay:10.37,2013-02-19 11:31:00,
2013-02-19 06:46:00,24.1,11.8,30.04,NNW,330,0.0,0.0,59,0.00,BKN,SKC,0.00,0.0,WeatherDisplay:10.37,2013-02-19 11:46:00,
2013-02-19 07:01:00,24.1,11.8,30.01,NNW,330,0.0,0.0,59,0.00,BKN,SKC,0.00,0.0,WeatherDisplay:10.37,2013-02-19 12:01:00,
2013-02-19 07:16:00,24.1,13.7,30.00,NNW,330,0.0,0.0,64,0.00,FEW,SKC,0.00,0.0,WeatherDisplay:10.37,2013-02-19 12:16:00,
2013-02-19 07:31:00,24.1,13.7,30.01,NNW,330,0.0,0.0,64,0.00,FEW,SKC,0.00,0.0,WeatherDisplay:10.37,2013-02-19 12:31:00,
2013-02-19 07:46:00,24.1,13.7,30.03,NNW,330,0.0,0.0,64,0.00,FEW,SKC,0.00,0.0,WeatherDisplay:10.37,2013-02-19 12:46:00,
2013-02-19 08:01:00,24.1,13.7,30.02,NNW,330,0.0,0.0,64,0.00,FEW,SKC,0.00,0.0,WeatherDisplay:10.37,2013-02-19 13:01:00,
2013-02-19 08:16:00,26.1,12.9,30.00,NNW,330,0.0,0.0,57,0.00,CLR,SKC,0.00,0.0,WeatherDisplay:10.37,2013-02-19 13:16:00,
2013-02-19 08:31:00,26.1,12.9,30.03,NNW,330,0.0,0.0,57,0.00,CLR,SKC,0.00,0.0,WeatherDisplay:10.37,2013-02-19 13:31:00,
2013-02-19 08:46:00,26.1,12.9,29.99,NNW,330,0.0,0.0,57,0.00,CLR,SKC,0.00,0.0,WeatherDisplay:10.37,2013-02-19 13:46:00,
2013-02-19 09:01:00,26.1,12.9,30.00,NNW,330,0.0,0.0,57,0.00,CLR,SKC,0.00,0.0,WeatherDisplay:10.37,2013-02-19 14:01:00,
2013-02-19 09:16:00,28.9,14.4,29.99,SSE,160,3.0,3.0,54,0.00,CLR,SKC,0.00,0.0,WeatherDisplay:10.37,2013-02-19 14:16:00,
2013-02-19 09:31:00,28.9,14.4,30.03,SSE,160,3.0,3.0,54,0.00,CLR,SKC,0.00,0.0,WeatherDisplay:10.37,2013-02-19 14:31:00,
2013-02-19 09:46:00,28.9,14.4,30.00,SSE,160,3.0,3.0,54,0.00,CLR,SKC,0.00,0.0,WeatherDisplay:10.37,2013-02-19 14:46:00,
2013-02-19 10:01:00,28.9,14.4,29.99,SSE,160,3.0,3.0,54,0.00,CLR,SKC,0.00,0.0,WeatherDisplay:10.37,2013-02-19 15:01:00,
2013-02-19 10:16:00,33.1,16.0,29.97,SE,130,5.0,5.0,49,0.00,CLR,SKC,0.00,0.0,WeatherDisplay:10.37,2013-02-19 15:16:00,
2013-02-19 10:31:00,33.1,16.0,30.01,SE,130,5.0,5.0,49,0.00,CLR,SKC,0.00,0.0,WeatherDisplay:10.37,2013-02-19 15:31:00,
2013-02-19 10:46:00,33.1,16.0,29.97,SE,130,5.0,5.0,49,0.00,CLR,SKC,0.00,0.0,WeatherDisplay:10.37,2013-02-19 15:46:00,
2013-02-19 11:01:00,33.1,16.0,29.98,SE,130,5.0,5.0,49,0.00,CLR,SKC,0.00,0.0,WeatherDisplay:10.37,2013-02-19 16:01:00,
2013-02-19 11:16:00,37.0,20.1,29.95,SE,140,5.0,5.0,50,0.00,CLR,SKC,0.00,0.0,WeatherDisplay:10.37,2013-02-19 16:16:00,
2013-02-19 11:31:00,37.0,20.1,29.95,SE,140,5.0,5.0,50,0.00,CLR,SKC,0.00,0.0,WeatherDisplay:10.37,2013-02-19 16:31:00,
2013-02-19 11:46:00,37.0,20.1,29.97,SE,140,5.0,5.0,50,0.00,CLR,SKC,0.00,0.0,WeatherDisplay:10.37,2013-02-19 16:46:00,
2013-02-19 12:01:00,37.0,20.1,30.03,SE,140,5.0,5.0,50,0.00,CLR,SKC,0.00,0.0,WeatherDisplay:10.37,2013-02-19 17:01:00,
2013-02-19 12:16:00,42.1,28.4,29.95,SSE,150,10.0,10.0,58,0.00,CLR,SKC,0.00,0.0,WeatherDisplay:10.37,2013-02-19 17:16:00,
2013-02-19 12:31:00,42.1,28.4,29.89,SSE,150,10.0,10.0,58,0.00,CLR,SKC,0.00,0.0,WeatherDisplay:10.37,2013-02-19 17:31:00,
2013-02-19 12:46:00,42.1,28.4,29.93,SSE,150,10.0,10.0,58,0.00,CLR,SKC,0.00,0.0,WeatherDisplay:10.37,2013-02-19 17:46:00,
2013-02-19 13:01:00,42.1,28.4,29.98,SSE,150,10.0,10.0,58,0.00,CLR,SKC,0.00,0.0,WeatherDisplay:10.37,2013-02-19 18:01:00,
2013-02-19 13:16:00,42.1,28.4,29.97,SSE,150,10.0,10.0,58,0.00,CLR,SKC,0.00,0.0,WeatherDisplay:10.37,2013-02-19 18:16:00,
2013-02-19 13:31:00,42.1,28.4,29.86,SSE,150,10.0,10.0,58,0.00,CLR,SKC,0.00,0.0,WeatherDisplay:10.37,2013-02-19 18:31:00,
2013-02-19 13:46:00,42.1,28.4,29.87,SSE,150,10.0,10.0,58,0.00,CLR,SKC,0.00,0.0,WeatherDisplay:10.37,2013-02-19 18:46:00,
2013-02-19 14:01:00,42.1,28.4,29.98,SSE,150,10.0,10.0,58,0.00,CLR,SKC,0.00,0.0,WeatherDisplay:10.37,2013-02-19 19:01:00,
2013-02-19 14:16:00,45.0,31.1,29.84,South,180,8.0,10.0,58,0.00,CLR,SKC,0.00,0.0,WeatherDisplay:10.37,2013-02-19 19:16:00,
2013-02-19 14:31:00,45.0,31.1,29.82,South,180,8.0,8.0,58,0.00,CLR,SKC,0.00,0.0,WeatherDisplay:10.37,2013-02-19 19:31:00,
2013-02-19 14:46:00,45.0,31.1,29.82,South,180,8.0,8.0,58,0.00,CLR,SKC,0.00,0.0,WeatherDisplay:10.37,2013-02-19 19:46:00,
2013-02-19 15:01:00,45.0,31.1,29.82,South,180,8.0,8.0,58,0.00,CLR,SKC,0.00,0.0,WeatherDisplay:10.37,2013-02-19 20:01:00,
2013-02-19 15:16:00,45.0,32.3,29.85,SSE,160,12.0,12.0,61,0.00,BKN,SKC,0.00,0.0,WeatherDisplay:10.37,2013-02-19 20:16:00,
2013-02-19 15:31:00,45.0,32.3,29.79,SSE,160,12.0,12.0,61,0.00,BKN,SKC,0.00,0.0,WeatherDisplay:10.37,2013-02-19 20:31:00,
2013-02-19 15:46:00,45.0,32.3,29.80,SSE,160,12.0,12.0,61,0.00,BKN,SKC,0.00,0.0,WeatherDisplay:10.37,2013-02-19 20:46:00,
2013-02-19 16:01:00,45.0,32.3,29.77,SSE,160,12.0,12.0,61,0.00,BKN,SKC,0.00,0.0,WeatherDisplay:10.37,2013-02-19 21:01:00,
2013-02-19 16:16:00,45.0,33.9,29.76,South,170,12.0,24.0,65,0.00,OVC,SKC,0.00,0.0,WeatherDisplay:10.37,2013-02-19 21:16:00,
2013-02-19 16:31:00,45.0,33.9,29.75,South,170,12.0,24.0,65,0.00,OVC,SKC,0.00,0.0,WeatherDisplay:10.37,2013-02-19 21:31:00,
2013-02-19 16:46:00,42.8,38.6,29.78,South,170,9.0,24.0,85,0.00,-RA,SKC,0.00,0.0,WeatherDisplay:10.37,2013-02-19 21:46:00,
2013-02-19 17:01:00,42.8,38.6,29.74,South,170,9.0,9.0,85,0.00,-RA,SKC,0.00,0.0,WeatherDisplay:10.37,2013-02-19 22:01:00,
2013-02-19 17:16:00,42.1,37.9,29.73,SSE,160,12.0,12.0,85,0.00,-RA,SKC,0.00,0.0,WeatherDisplay:10.37,2013-02-19 22:16:00,
2013-02-19 17:31:00,41.0,38.3,29.73,SSE,160,6.0,12.0,90,0.00,-RA,SKC,0.00,0.0,WeatherDisplay:10.37,2013-02-19 22:31:00,
2013-02-19 17:46:00,41.0,38.3,29.73,SSE,160,6.0,6.0,90,0.00,-RA,SKC,0.00,0.0,WeatherDisplay:10.37,2013-02-19 22:46:00,
2013-02-19 18:01:00,41.0,38.3,29.78,SSE,160,6.0,6.0,90,0.00,-RA,SKC,0.00,0.0,WeatherDisplay:10.37,2013-02-19 23:01:00,
2013-02-19 18:16:00,41.0,39.7,29.71,SSE,150,3.0,6.0,95,0.00,-RA,SKC,0.00,0.0,WeatherDisplay:10.37,2013-02-19 23:16:00,
2013-02-19 18:31:00,39.2,39.2,29.70,SE,140,3.0,3.0,100,0.01,-RA,SKC,0.01,0.0,WeatherDisplay:10.37,2013-02-19 23:31:00,
2013-02-19 18:46:00,39.2,39.2,29.68,SE,140,3.0,3.0,100,0.00,-RA,SKC,0.01,0.0,WeatherDisplay:10.37,2013-02-19 23:46:00,
2013-02-19 19:01:00,39.2,39.2,29.69,SE,140,3.0,3.0,100,0.00,-RA,SKC,0.02,0.0,WeatherDisplay:10.37,2013-02-20 00:01:00,
2013-02-19 19:16:00,39.2,39.2,29.66,ESE,120,0.0,3.0,100,0.01,-RA,SKC,0.02,0.0,WeatherDisplay:10.37,2013-02-20 00:16:00,
2013-02-19 19:31:00,37.4,37.4,29.66,ESE,120,0.0,0.0,100,0.00,-RA,SKC,0.02,0.0,WeatherDisplay:10.37,2013-02-20 00:31:00,
2013-02-19 19:46:00,37.4,37.4,29.65,ESE,120,0.0,0.0,100,0.00,-RA,SKC,0.02,0.0,WeatherDisplay:10.37,2013-02-20 00:46:00,
2013-02-19 20:01:00,37.4,37.4,29.64,ESE,120,0.0,0.0,100,0.00,-RA,SKC,0.05,0.0,WeatherDisplay:10.37,2013-02-20 01:01:00,
2013-02-19 20:31:00,37.4,37.4,29.62,North,0,0.0,0.0,100,0.00,-RA,SKC,0.06,0.0,WeatherDisplay:10.37,2013-02-20 01:31:00,
2013-02-19 20:46:00,37.4,37.4,29.61,NW,310,0.0,5.0,100,0.00,-RA,SKC,0.06,0.0,WeatherDisplay:10.37,2013-02-20 01:46:00,
2013-02-19 21:01:00,37.4,37.4,29.60,NW,310,0.0,0.0,100,0.00,-RA,SKC,0.09,0.0,WeatherDisplay:10.37,2013-02-20 02:01:00,
2013-02-19 21:16:00,37.0,37.0,29.58,NW,310,0.0,0.0,100,0.03,OVC,SKC,0.09,0.0,WeatherDisplay:10.37,2013-02-20 02:16:00,
2013-02-19 21:31:00,37.4,37.4,29.58,NW,310,0.0,0.0,100,0.00,-RA,SKC,0.09,0.0,WeatherDisplay:10.37,2013-02-20 02:31:00,
2013-02-19 21:46:00,35.6,35.6,29.58,NW,310,0.0,0.0,100,0.00,-RA,SKC,0.09,0.0,WeatherDisplay:10.37,2013-02-20 02:46:00,
2013-02-19 22:01:00,35.6,35.6,29.58,NW,310,0.0,0.0,100,0.00,-RA,SKC,0.10,0.0,WeatherDisplay:10.37,2013-02-20 03:01:00,
2013-02-19 22:16:00,36.0,36.0,29.58,NW,310,0.0,0.0,100,0.01,-RA,SKC,0.10,0.0,WeatherDisplay:10.37,2013-02-20 03:16:00,
2013-02-19 22:31:00,35.6,35.6,29.56,NW,310,0.0,0.0,100,0.00,-RA,SKC,0.10,0.0,WeatherDisplay:10.37,2013-02-20 03:31:00,
2013-02-19 22:46:00,35.6,35.6,29.56,NW,310,0.0,0.0,100,0.00,-RA,SKC,0.10,0.0,WeatherDisplay:10.37,2013-02-20 03:46:00,
2013-02-19 23:01:00,35.6,35.6,29.56,NW,310,0.0,0.0,100,0.00,-RA,SKC,0.10,0.0,WeatherDisplay:10.37,2013-02-20 04:01:00,
2013-02-19 23:16:00,36.0,36.0,29.55,NW,310,0.0,0.0,100,0.00,OVC,SKC,0.10,0.0,WeatherDisplay:10.37,2013-02-20 04:16:00,
2013-02-19 23:31:00,36.0,36.0,29.55,NW,310,0.0,0.0,100,0.00,OVC,SKC,0.10,0.0,WeatherDisplay:10.37,2013-02-20 04:31:00,
2013-02-19 23:46:00,35.6,35.6,29.56,NW,310,0.0,0.0,100,0.00,OVC,SKC,0.10,0.0,WeatherDisplay:10.37,2013-02-20 04:46:00,